DW5513 Weather Reports


Display with metric or nautical units.
time (UTC)temp
F
wind
direction
speed
MPH
gust
MPH
rain 1hr
in
rain 24hr
in
rain mn
in
humidity
%
barometer
mb
20260905184604 75 87 0.0 4.0 0.00 0.00 0.00 60 1011.3
20260905183050 75 81 0.0 3.0 0.00 0.00 0.00 64 1011.3
20260905181548 74 37 1.0 5.0 0.00 0.00 0.00 63 1011.4
20260905180051 75 54 1.0 5.0 0.00 0.00 0.00 61 1011.3
20260905174550 75 85 1.0 6.0 0.00 0.00 0.00 61 1011.3
20260905173043 74 32 0.0 2.0 0.00 0.00 0.00 65 1011.3
20260905171542 74 347 0.0 4.0 0.00 0.00 0.00 65 1011.3
20260905170042 74 348 0.0 3.0 0.00 0.00 0.00 65 1011.3
20260905164540 73 236 0.0 2.0 0.00 0.00 0.00 71 1011.4
20260905163049 72 273 0.0 2.0 0.00 0.00 0.00 71 1011.4
20260905161538 72 262 0.0 5.0 0.00 0.00 0.00 75 1011.5
20260905160048 71 18 0.0 4.0 0.00 0.00 0.00 73 1011.7
20260905154544 72 252 0.0 1.0 0.00 0.00 0.00 70 1011.8
20260905153036 72 308 1.0 6.0 0.00 0.00 0.00 69 1012.0
20260905151533 72 332 1.0 6.0 0.00 0.00 0.00 72 1012.0
20260905150031 71 352 1.0 4.0 0.00 0.00 0.00 73 1012.1
20260905144543 70 11 1.0 4.0 0.00 0.00 0.00 76 1012.2
20260905143029 70 298 2.0 5.0 0.00 0.00 0.00 74 1012.2
20260905141546 70 276 2.0 7.0 0.00 0.00 0.00 75 1012.2
20260905140022 68 120 1.0 3.0 0.00 0.00 0.00 79 1012.3
20260905134519 66 54 0.0 5.0 0.00 0.00 0.00 81 1012.4
20260905133018 66 283 1.0 5.0 0.00 0.00 0.00 82 1012.5
20260905131513 65 332 1.0 7.0 0.00 0.00 0.00 84 1012.5
20260905130011 64 335 0.0 6.0 0.00 0.00 0.00 87 1012.7
20260905124511 64 244 1.0 4.0 0.00 0.00 0.00 87 1012.6
20260905123009 62 312 0.0 2.0 0.00 0.00 0.00 90 1012.5
20260905121508 61 94 0.0 1.0 0.00 0.00 0.00 92 1012.6
20260905120005 60 316 0.0 2.0 0.00 0.00 0.00 94 1012.4
20260905114504 59 93 0.0 1.0 0.00 0.00 0.00 96 1012.2
20260905113001 58 86 0.0 0.0 0.00 0.00 0.00 96 1011.9
20260905111556 0 0.0 0.0 0.00 0.00 0.00 1011.7
20260905110051 0 0.0 0.0 0.00 0.00 0.00 1011.5
20260905104550 0 0.0 0.0 0.00 0.00 0.00 1011.4
20260905103044 0 0.0 0.0 0.00 0.00 0.00 1011.2
20260905101539 0 77 0.0 0.0 0.00 0.00 0.00 97 1011.2
20260905100049 57 74 0.0 0.0 0.00 0.00 0.00 97 1011.2
20260905094537 57 74 0.0 0.0 0.00 0.00 0.00 96 1011.2
20260905093036 58 74 0.0 0.0 0.00 0.00 0.00 97 1011.1
20260905091540 57 74 0.0 0.0 0.00 0.00 0.00 96 1011.1
20260905090032 58 74 0.0 0.0 0.00 0.00 0.00 96 1011.1
20260905084531 58 74 0.0 0.0 0.00 0.00 0.00 96 1011.2
20260905083028 59 74 0.0 0.0 0.00 0.00 0.00 96 1011.1
20260905081525 59 74 0.0 0.0 0.00 0.00 0.00 95 1011.1
20260905080024 60 74 0.0 0.0 0.00 0.00 0.00 95 1011.2
20260905074527 60 74 0.0 0.0 0.00 0.00 0.00 95 1011.1
20260905073030 61 74 0.0 1.0 0.00 0.00 0.00 94 1011.2
20260905071523 61 73 0.0 0.0 0.00 0.00 0.00 94 1011.3
20260905070016 62 73 0.0 1.0 0.00 0.00 0.00 94 1011.3
20260905064515 62 73 0.0 0.0 0.00 0.00 0.00 93 1011.3
20260905063013 62 73 0.0 0.0 0.00 0.00 0.00 93 1011.2
20260905061509 63 73 0.0 0.0 0.00 0.00 0.00 93 1011.3
20260905060013 63 73 0.0 0.0 0.00 0.00 0.00 92 1011.5
20260905054507 63 73 0.0 0.0 0.00 0.00 0.00 92 1011.5
20260905053007 63 54 0.0 2.0 0.00 0.00 0.00 92 1011.6
20260905051505 63 65 0.0 0.0 0.00 0.00 0.00 92 1011.6
20260905050004 63 65 0.0 1.0 0.00 0.00 0.00 91 1011.8
20260905044503 64 171 0.0 0.0 0.00 0.00 0.00 91 1011.9
20260905043100 64 171 0.0 0.0 0.00 0.00 0.00 90 1011.8
20260905041558 64 29 0.0 0.0 0.00 0.00 0.00 89 1011.9
20260905040058 65 29 0.0 0.0 0.00 0.00 0.00 88 1011.8
20260905034608 65 29 0.0 0.0 0.00 0.00 0.00 87 1011.9
20260905033105 66 29 0.0 0.0 0.00 0.00 0.00 86 1011.8
20260905031608 66 29 0.0 1.0 0.00 0.00 0.00 85 1011.9
20260905030053 66 342 0.0 0.0 0.00 0.00 0.00 85 1011.7
20260905024552 66 302 0.0 1.0 0.00 0.00 0.00 85 1011.9
20260905023124 66 33 0.0 2.0 0.00 0.00 0.00 84 1011.9
20260905021551 66 1 0.0 1.0 0.00 0.00 0.00 83 1012.0
20260905020049 67 50 0.0 2.0 0.00 0.00 0.00 83 1011.9
20260905014554 67 43 0.0 3.0 0.00 0.00 0.00 81 1011.9
20260905013048 67 49 0.0 1.0 0.00 0.00 0.00 82 1012.0
20260905011556 66 68 0.0 2.0 0.00 0.00 0.00 82 1012.1
20260905010048 65 268 0.0 0.0 0.00 0.00 0.00 84 1012.0
20260905004547 66 268 0.0 0.0 0.00 0.00 0.00 83 1012.0
20260905003046 67 268 0.0 0.0 0.00 0.00 0.00 81 1011.9
20260905001546 68 268 0.0 0.0 0.00 0.00 0.00 79 1011.9
20260905000058 69 268 0.0 0.0 0.00 0.00 0.00 77 1011.7
20260904234544 70 240 0.0 1.0 0.00 0.00 0.00 73 1011.5
20260904233048 70 312 0.0 2.0 0.00 0.00 0.00 72 1011.6
20260904231542 71 345 0.0 1.0 0.00 0.00 0.00 70 1011.3